Regional Weather Roundup
Issued by NWS

Home | Current Version | Previous Version | Graphics & Text | Print | Product List | Glossary On
Versions: 1 2 3 4 5 6 7 8 9 10 11 12 13 14 15 16 17 18 19 20 21 22 23 24 25 26 27 28 29 30 31 32 33 34 35 36 37 38 39 40 41 42 43 44 45 46 47 48 49 50
961
ASUS45 KCYS 230110
RWRWY

WYOMING REGIONAL WEATHER ROUNDUP
NATIONAL WEATHER SERVICE CHEYENNE WY
700 PM MDT TUE AUG 22 2017

NOTE:  "FAIR" INDICATES FEW OR NO CLOUDS BELOW 12,000 FEET
WITH NO SIGNIFICANT WEATHER AND/OR OBSTRUCTIONS TO VISIBILITY.

WYZ001-230200-
YELLOWSTONE NATIONAL PARK

CITY           SKY/WX    TMP DP  RH WIND       PRES   REMARKS
LK YELLOWSTONE   N/A     71  20  14 MISG      30.37F
W YELLOWSTONE  NOT AVBL

$$
WYZ002>013-054>058-071-098>099-230200-
NORTHERN WYOMING

CITY           SKY/WX    TMP DP  RH WIND       PRES   REMARKS
JACKSON        FAIR      79  29  16 W10       30.26S
CODY           FAIR      78  42  27 N6        30.15F
GREYBULL       FAIR      88  30  12 W8        30.04F
WORLAND        FAIR      86  39  19 N3        30.07F
SHERIDAN       FAIR      85  36  17 CALM      30.10F
BUFFALO        FAIR      82  32  16 NE7       30.18F
GILLETTE       FAIR      83  30  14 N12       30.13F
HULETT         FAIR      77  41  27 E10       30.15S
NEWCASTLE      FAIR      79  43  27 CALM      30.13S

$$
WYZ014>020-022>026-101>103-230200-
CENTRAL WYOMING

CITY           SKY/WX    TMP DP  RH WIND       PRES   REMARKS
BIG PINEY      FAIR      77  26  15 N10       30.30S
PINEDALE       FAIR      77  23  13 NW12      30.31F
DUBOIS         FAIR      77  18  10 W13       30.28F
LANDER           N/A    N/A N/A N/A MISG      30.16F
RIVERTON       FAIR      83  28  13 NE6       30.15F
CASPER         FAIR      84  32  15 SE6       30.15F
DOUGLAS        FAIR      81  45  28 E3        30.16F

$$
WYZ021-027>030-104>119-230200-
SOUTHERN WYOMING

CITY           SKY/WX    TMP DP  RH WIND       PRES   REMARKS
EVANSTON       FAIR      70  38  31 W14       30.35F
KEMMERER         N/A     73  28  19 W8        30.33F
FORT BRIDGER   FAIR      75  35  23 W17       30.36S
ROCK SPRINGS   FAIR      80  29  15 SW14      30.26F
DIXON          FAIR      78  34  19 SW9       30.29S
RAWLINS        NOT AVBL
SARATOGA       FAIR      75  36  23 CALM      30.29F
LARAMIE        MOCLDY    73  50  44 S13       30.29F
CHEYENNE       FAIR      74  53  48 S14       30.25F
TORRINGTON     FAIR      80  48  32 SE14      30.10F
PINE BLUFFS    FAIR      77  52  41 SE15G23   30.21S

$$




USA.gov is the U.S. government's official web portal to all federal, state and local government web resources and services.